Theta_e
308 308 308 308 307 307 307 307 307 308 308 308 308 311 310 312 310 313 311 310 309 311 316 315 314 316 317 317 319 317 315 313 312 312 315 318 318 322 326 331 332 333 331 333 335
308 308 308 308 308 307 307 308 307 308 308 308 308 311 310 311 311 311 313 313 312 311 313 315 316 317 316 316 318 317 313 314 312 311 314 316 317 323 326 328 328 330 331 332 335
309 309 308 308 308 307 308 307 307 307 309 308 308 311 312 311 312 312 312 313 317 315 312 316 316 318 316 316 317 317 316 313 315 316 316 316 318 321 323 325 329 331 332 332 335
308 309 309 308 308 308 307 307 308 308 309 308 309 312 312 312 311 313 312 313 315 315 313 315 317 317 314 314 315 316 315 317 316 316 315 314 315 316 322 327 329 331 331 333 334
308 308 309 308 308 308 307 307 308 308 309 309 309 311 311 312 312 311 312 312 313 315 313 316 317 317 315 314 314 314 314 315 317 316 316 315 315 314 318 324 325 329 331 332 334
308 308 309 309 308 308 307 307 308 309 309 309 310 311 311 311 311 311 311 311 313 317 314 314 316 316 316 315 313 313 314 315 315 315 315 314 314 316 320 321 324 329 331 332 333
308 308 309 309 309 308 308 308 307 309 309 310 310 310 310 311 311 311 311 311 315 313 314 313 314 316 315 315 315 316 313 312 312 313 314 314 314 315 318 321 327 330 331 332 333
308 308 308 308 309 309 308 308 307 308 309 310 310 309 308 310 310 311 311 313 313 314 313 313 315 315 315 314 314 314 314 315 311 310 312 314 314 313 317 323 328 329 330 331 332
307 308 308 308 308 309 308 308 307 308 309 310 310 309 310 309 309 310 311 311 313 313 313 314 314 314 314 314 314 313 312 312 313 310 311 313 314 314 317 326 327 328 329 330 331
306 307 308 308 308 308 308 308 308 308 309 310 310 309 309 309 307 310 310 312 311 312 312 313 313 314 314 315 315 313 311 311 311 310 311 312 313 312 316 325 325 327 328 329 330
305 305 307 308 308 308 308 308 308 308 308 308 309 309 309 309 308 309 310 312 311 311 311 309 312 314 312 313 313 310 310 311 310 310 312 311 313 313 313 318 321 325 327 329 329
306 306 305 306 307 308 307 307 308 309 306 308 309 310 310 309 310 309 309 311 310 311 310 311 312 311 311 312 313 312 310 310 309 309 312 312 312 312 311 314 318 322 325 327 327
303 306 306 305 306 306 307 308 309 308 308 309 310 310 310 310 309 309 309 310 310 310 311 310 310 310 311 312 313 312 311 309 311 311 311 312 313 314 311 311 314 316 319 322 323
303 306 307 305 305 307 309 309 308 309 301 306 309 311 310 310 310 309 309 310 310 310 309 311 310 311 310 312 313 314 310 310 311 311 312 312 312 312 311 310 310 313 315 318 321
305 307 306 304 305 307 308 308 308 308 301 305 310 310 311 310 310 310 309 310 310 311 310 309 310 312 313 311 312 314 310 311 311 310 309 311 309 308 309 311 309 309 313 316 319
305 306 306 305 304 308 309 308 308 302 300 306 310 310 310 310 310 310 310 309 309 310 309 310 310 310 312 309 313 311 312 311 310 308 309 311 309 310 310 312 312 310 313 314 316
306 306 306 305 308 310 308 308 305 301 304 308 309 310 310 310 310 310 310 312 313 312 313 310 312 310 310 311 310 311 313 309 311 310 312 306 306 308 307 306 306 306 309 312 313
307 307 307 306 307 307 308 303 302 303 306 306 308 308 311 310 310 311 311 311 310 310 312 313 313 309 308 311 311 311 312 309 315 313 310 304 310 311 305 307 308 308 309 309 311
307 307 308 307 308 307 309 302 304 303 307 308 307 308 307 307 309 310 310 307 306 308 312 313 311 309 310 309 309 313 311 310 310 304 305 305 307 307 306 307 308 307 307 309 310
307 308 310 308 307 307 306 309 304 305 308 308 310 307 308 307 308 308 306 306 308 306 306 311 313 309 312 310 311 311 309 314 310 315 314 306 308 306 308 310 308 307 308 309 310
307 310 310 307 307 309 305 304 305 308 308 308 308 308 307 307 308 307 307 307 307 307 307 305 308 310 311 310 313 313 310 310 307 308 313 309 308 304 306 308 308 307 309 311 311
310 308 310 306 307 303 303 304 307 307 308 308 307 307 307 307 308 308 308 306 307 307 307 304 305 309 311 309 309 308 308 308 310 307 303 304 304 303 305 305 307 307 309 310 311
310 310 308 306 307 303 302 306 307 307 307 307 308 306 306 307 308 307 308 307 307 306 307 304 304 306 309 308 305 307 310 306 303 302 303 304 304 300 301 301 304 305 306 308 310
308 307 307 305 306 304 305 306 307 307 306 307 306 305 305 305 305 307 306 307 307 306 307 305 302 304 307 307 305 306 304 304 303 303 303 302 302 302 301 300 301 302 304 306 307
308 307 309 306 304 302 304 305 305 306 306 306 306 306 305 305 305 306 304 303 305 304 304 302 303 303 303 303 304 306 306 304 303 303 305 301 303 301 300 300 301 303 304 305 306
310 306 304 303 304 302 303 304 305 305 305 305 306 305 304 304 305 304 304 304 304 302 302 300 303 302 303 302 302 305 305 304 305 301 301 301 304 300 301 303 303 304 305 305 305
307 306 308 304 301 303 303 304 305 305 306 306 305 305 305 304 305 305 305 304 303 304 302 301 301 302 304 303 304 304 303 305 305 304 301 304 302 299 302 302 303 304 305 305 305
Wind_Speed
3 6 8 9 12 14 19 22 22 21 21 23 24 21 15 12 10 12 15 14 12 7 6 3 8 8 6 4 4 3 0 3 6 6 3 4 6 5 9 10 10 12 6 5 24
4 5 7 8 12 16 20 21 22 21 22 24 24 20 14 11 9 10 7 9 10 7 9 5 4 8 4 2 4 5 3 6 4 2 2 7 4 7 7 8 8 12 11 8 26
4 5 7 7 11 15 18 20 21 21 21 22 22 18 13 7 7 2 3 9 10 10 12 10 7 6 4 4 5 4 5 4 4 3 4 6 6 3 4 3 16 25 22 19 30
5 5 6 6 9 13 16 18 20 18 19 18 17 13 11 4 3 2 9 11 11 14 16 14 10 5 6 4 4 3 8 8 11 3 10 8 14 9 12 9 18 25 27 26 32
6 5 7 6 8 11 13 16 20 17 18 16 13 7 8 7 6 11 13 13 11 11 21 19 13 7 4 6 7 3 3 7 21 19 13 10 9 9 14 20 13 18 27 28 31
6 7 9 7 9 10 12 16 19 18 19 13 10 8 7 5 7 12 13 9 6 8 16 18 6 9 5 4 6 2 6 16 23 17 10 6 9 4 7 17 13 20 30 30 32
8 9 9 9 11 11 12 16 17 17 17 12 9 11 11 11 11 12 13 6 2 7 10 14 15 8 1 3 7 12 6 5 8 11 4 5 8 6 14 11 15 25 31 31 33
9 11 10 12 13 13 14 16 18 18 16 12 10 13 5 8 11 9 9 6 3 4 8 9 9 13 6 6 2 4 2 2 5 7 7 5 8 10 12 15 19 24 29 31 33
10 10 12 14 14 15 15 16 18 19 14 12 9 9 5 8 10 7 5 5 4 1 2 4 5 4 3 1 4 3 3 6 6 8 5 7 4 6 10 16 19 24 27 28 29
11 11 12 12 13 15 16 17 19 18 13 11 6 5 4 14 10 4 3 3 2 1 2 1 1 2 4 5 5 3 2 3 5 3 5 4 7 9 9 14 19 22 23 25 27
12 11 12 11 12 14 14 14 8 5 6 7 7 4 8 9 3 2 3 1 3 1 1 3 1 6 12 12 9 6 4 6 4 8 3 8 5 11 6 10 10 19 22 25 25
13 12 11 10 11 11 11 9 8 8 9 8 10 9 8 6 3 3 4 2 2 1 2 2 4 7 7 11 7 9 5 6 5 6 5 5 10 9 4 6 15 20 23 23 20
14 13 10 9 10 9 8 6 8 8 3 5 6 6 4 4 4 4 2 3 1 2 6 5 2 5 6 7 13 8 6 4 6 1 2 3 5 4 2 6 8 14 16 18 20
16 15 8 6 6 2 3 4 7 2 4 4 4 3 3 3 0 3 3 1 2 3 2 6 3 9 5 6 11 11 8 5 5 3 4 3 4 5 5 7 6 16 16 18 20
17 11 4 4 3 1 2 5 2 3 4 2 2 2 3 3 1 2 4 3 4 2 2 3 2 6 8 4 8 5 4 5 1 3 2 1 2 6 1 6 7 11 20 20 19
14 7 2 3 4 2 1 2 3 5 5 3 3 3 2 5 3 4 1 5 3 4 5 5 5 4 5 8 8 4 5 4 3 3 1 4 4 5 5 7 5 8 21 20 18
10 4 1 2 1 3 1 2 4 4 2 3 3 3 3 4 4 6 4 4 3 2 4 2 4 3 3 5 3 3 3 2 2 1 5 1 3 8 2 1 2 3 5 14 18
7 1 1 3 3 2 4 4 3 4 5 3 2 3 5 5 4 6 2 3 7 3 1 2 0 4 3 2 3 4 5 4 5 3 3 3 5 5 1 4 6 6 8 8 16
5 2 1 3 4 4 2 3 6 6 2 4 6 2 3 2 3 4 6 3 7 11 2 1 3 2 4 3 2 3 2 3 4 2 2 2 5 4 1 5 8 6 6 13 13
6 4 3 4 5 6 3 5 4 4 1 1 2 1 3 3 2 3 3 3 2 6 5 6 2 3 1 5 7 1 2 2 2 2 4 3 3 4 1 2 5 6 9 14 15
7 3 5 7 7 3 2 6 5 7 5 4 2 3 5 4 2 3 2 1 2 2 3 4 3 1 3 3 5 2 2 3 2 4 3 3 5 5 2 1 6 5 9 12 13
5 1 9 9 3 1 2 5 2 3 5 4 2 4 4 3 4 2 2 4 3 3 4 3 3 3 1 5 3 2 2 1 3 4 4 1 3 2 2 4 8 8 9 10 11
4 4 10 13 3 3 5 4 4 3 4 3 3 5 2 3 3 3 1 0 1 3 3 4 1 3 7 6 4 5 4 4 2 3 5 4 3 2 5 8 9 14 13 12 12
5 2 4 11 5 3 2 5 3 5 3 4 3 2 2 3 3 4 3 1 1 1 2 2 3 5 6 3 5 5 6 6 7 2 4 4 5 3 5 7 7 12 14 15 15
8 4 5 4 6 5 4 2 3 3 4 3 2 3 2 3 3 2 2 5 1 5 3 4 3 3 5 4 3 4 4 6 8 7 2 6 5 5 6 7 9 13 14 15 14
6 5 5 2 4 7 4 4 6 3 5 3 4 3 4 4 4 3 0 1 1 5 3 3 3 3 2 0 1 4 2 5 3 3 5 7 5 5 6 11 11 13 14 12 10
13 9 4 3 3 5 5 5 6 5 5 4 4 1 3 4 5 4 4 5 4 1 2 2 2 1 2 3 2 0 3 3 1 2 6 5 6 7 4 7 12 14 11 9 6
Wind_Direction
344 355 3 14 7 6 7 4 357 350 345 343 342 337 315 307 284 269 276 291 280 282 245 257 234 238 260 256 211 153 325 228 200 177 238 207 197 218 199 160 174 196 208 207 187
295 334 353 358 359 8 7 357 349 342 336 334 340 338 325 304 295 280 300 300 264 246 223 227 266 239 228 228 210 177 165 217 238 232 298 313 257 195 173 171 197 203 214 196 184
282 313 338 349 360 5 358 347 340 335 329 327 338 338 333 303 303 221 311 305 282 238 220 214 233 223 213 211 209 201 212 206 279 302 31 345 317 302 180 247 200 204 204 188 183
269 298 319 327 355 352 346 349 350 334 328 328 338 342 360 323 302 229 310 321 289 251 212 206 213 200 203 205 218 270 240 235 260 250 339 324 315 312 224 225 227 220 210 191 190
261 285 297 309 340 333 337 341 344 338 332 330 331 328 339 309 287 303 306 328 320 231 203 197 208 208 201 172 232 253 293 300 241 277 300 305 286 264 267 236 262 216 201 197 194
268 273 275 303 308 313 324 332 336 338 334 328 326 313 306 280 296 321 328 328 327 190 202 205 225 228 279 206 173 254 243 247 270 288 294 287 281 306 275 239 238 198 197 197 197
273 268 275 287 290 296 310 324 331 330 333 319 314 321 299 281 302 320 330 330 278 205 209 217 218 196 286 281 268 250 311 331 265 259 252 325 297 230 252 233 207 191 194 194 198
283 273 276 279 280 286 295 310 321 323 326 317 300 321 270 296 306 317 328 356 335 231 229 242 241 236 250 291 298 154 160 228 276 182 243 155 269 286 251 216 203 197 196 197 199
295 289 280 272 279 283 288 302 315 315 308 312 296 321 289 321 307 297 329 350 13 28 217 238 215 229 167 141 314 193 229 230 319 223 202 179 257 260 237 210 204 202 201 200 200
302 299 284 279 280 283 289 299 310 306 295 301 297 318 312 325 312 263 298 333 339 151 61 70 99 231 199 188 220 236 221 242 207 277 211 207 249 280 244 215 215 207 206 204 203
312 299 291 289 287 286 295 310 316 312 304 255 295 276 306 338 308 292 264 316 132 79 122 30 251 231 243 219 268 300 210 224 235 235 256 215 225 252 246 230 216 213 210 207 207
324 307 295 290 289 290 300 304 296 295 305 276 258 280 295 322 308 287 270 239 154 139 335 154 248 258 252 224 220 283 260 247 286 252 179 218 233 247 206 229 224 217 212 211 207
326 317 299 293 286 292 299 288 299 308 280 280 249 263 280 268 313 299 258 276 152 222 197 224 286 169 228 210 205 242 246 234 211 315 199 118 290 233 251 234 236 239 234 226 219
328 316 299 289 286 284 315 306 310 293 50 260 242 221 198 202 195 319 253 280 231 253 228 251 184 180 181 238 216 226 215 240 217 111 204 139 255 235 232 248 222 237 235 232 225
334 326 302 249 253 281 316 323 329 107 15 263 174 237 229 196 176 202 241 260 250 270 137 264 193 235 225 218 210 201 172 201 187 140 71 251 82 254 112 252 251 239 235 232 227
336 333 301 259 244 243 282 339 125 46 267 328 169 205 176 206 212 169 123 218 273 245 257 265 278 222 180 243 221 228 86 58 50 81 35 237 144 262 188 201 233 233 237 231 224
327 332 256 232 170 170 305 135 35 125 311 263 257 178 231 212 200 186 194 205 226 231 218 263 248 261 218 155 174 69 108 35 16 352 221 272 83 244 270 245 268 310 271 225 214
309 310 234 214 204 158 148 57 99 242 243 319 286 238 219 165 221 184 213 253 220 244 151 208 280 9 1 106 188 168 155 158 192 204 248 344 210 248 317 341 323 292 249 206 193
276 208 137 200 193 171 146 63 215 206 250 309 320 291 285 237 191 178 214 237 180 188 200 142 348 331 45 58 42 164 165 163 92 112 56 220 273 333 36 5 26 30 167 168 170
233 201 192 179 185 167 81 237 239 218 230 145 283 267 288 289 243 200 206 196 161 174 192 207 63 345 88 54 347 142 173 110 41 252 235 273 257 215 21 19 58 62 118 135 136
210 209 186 170 165 170 201 231 259 249 221 184 246 285 259 291 272 258 245 228 175 190 194 153 157 224 3 191 199 159 140 74 133 179 252 145 261 212 245 186 112 104 116 120 122
211 149 184 175 140 174 233 207 246 258 212 256 227 227 233 288 277 281 263 218 200 182 179 179 119 72 269 307 312 149 172 148 156 238 233 216 274 3 75 96 124 113 114 114 113
227 162 183 182 185 231 269 270 235 228 212 206 250 213 206 253 289 235 235 15 225 210 189 166 174 99 337 353 19 284 181 217 17 57 239 136 233 66 94 85 106 112 110 113 116
222 148 165 205 241 193 244 249 252 230 245 212 251 231 310 266 213 290 298 224 246 244 214 154 166 175 198 189 135 213 233 182 171 255 179 206 147 154 142 129 119 112 109 105 107
220 232 179 202 241 194 163 279 228 257 227 211 255 216 215 281 300 242 292 321 254 1 140 154 213 209 226 242 201 218 207 173 191 242 173 178 121 188 183 156 139 125 118 110 102
236 186 181 225 168 152 188 241 206 228 191 229 209 198 192 219 216 271 274 29 288 327 22 340 219 162 199 350 197 177 166 184 194 111 67 115 103 172 136 134 134 136 131 118 106
228 227 202 171 166 136 214 218 217 157 223 236 215 200 230 234 214 237 248 269 250 283 300 34 139 84 254 316 303 304 204 201 142 114 151 133 207 151 145 141 154 153 146 129 106